Home   Weather   Hay River   Past weeks

Flag for Canada Past Weather in Hay River, Northwest Territories, Canada — Yesterday and Last 2 Weeks

Now
43 °F

Passing clouds.


Feels Like: 39 °F
Forecast: 28 / 35 °F
Wind: 7 mph from East

Location: Hay River

Current Time: Apr 29, 2017 at 11:34:57 pm

Latest Report: Apr 29, 2017 at 11:00 pm


Visibility: 15 mi

Pressure: 29.87 "Hg

Humidity: 49%

Dew Point: 25 °F

Location of Hay RiverLocation

Past Weather in Hay River — Graph

°F

Hay River Temperature Yesterday

Maximum temperature yesterday: 36 °F (at 6:00 pm)
Minimum temperature yesterday: 25 °F (at 7:00 am)
Average temperature yesterday: 30 °F

High & Low Weather Summary for the Past Weeks

 TemperatureHumidityPressure
High59 °F (Apr 29, 2:00 pm)100% (Apr 29, 12:00 am)30.79 "Hg (Apr 29, 12:00 am)
Low-2 °F (Apr 18, 4:00 am)24% (Apr 26, 6:00 pm)29.69 "Hg (Apr 26, 8:00 pm)
Average24 °F62%30.18 "Hg
* Reported Apr 14 9:00 pm — Apr 29 9:00 pm, Hay River, Weather by CustomWeather, © 2017

Note: Actual official high and low records may vary slightly from our data, if they occured in-between our weather recording intervals... More about our weather records

Advertising

Hay River Weather History for the Previous 24 Hours

Scroll right to see more
 ConditionsComfort  
Time TempWeatherWind HumidityBarometerVisibility
9:00 pm
Sat, Apr 29
45 °FBroken clouds.7 mph49%29.88 "Hg15 mi
8:00 pm48 °FBroken clouds.7 mph46%29.88 "Hg15 mi
7:00 pm52 °FBroken clouds.10 mph41%29.89 "Hg15 mi
6:00 pm54 °FScattered showers. Partly sunny.8 mph41%29.91 "Hg15 mi
5:00 pm54 °FPartly sunny.12 mph38%29.91 "Hg15 mi
4:00 pm59 °FPartly sunny.7 mph34%29.93 "Hg15 mi
3:00 pm59 °FScattered showers. Partly sunny.5 mph34%29.95 "Hg15 mi
2:00 pm59 °FPartly sunny.12 mph31%29.96 "Hg15 mi
1:00 pm57 °FPartly sunny.7 mph33%29.98 "Hg15 mi
12:00 pm55 °FPartly sunny.13 mph38%29.99 "Hg15 mi
11:00 am54 °FPartly sunny.10 mph41%30.01 "Hg15 mi
10:00 am50 °FPartly sunny.8 mph47%30.02 "Hg15 mi
9:00 am43 °FPartly sunny.10 mph57%30.03 "Hg15 mi
8:00 am37 °FPartly sunny.6 mph70%30.05 "Hg15 mi
7:00 am34 °FPartly sunny.8 mph75%30.06 "Hg15 mi
6:00 am34 °FPartly sunny.7 mph75%30.06 "Hg15 mi
5:00 am34 °FPassing clouds.8 mph75%30.07 "Hg15 mi
4:00 am34 °FPartly cloudy.9 mph75%30.07 "Hg15 mi
3:00 am32 °FPassing clouds.6 mph80%30.08 "Hg15 mi
2:00 am28 °FPassing clouds.3 mph93%30.09 "Hg15 mi
1:00 am27 °FPartly cloudy.3 mph93%30.10 "Hg15 mi
12:00 am25 °FPassing clouds.No wind100%30.11 "Hg15 mi
11:00 pm
Fri, Apr 28
28 °FPassing clouds.2 mph93%30.12 "Hg15 mi
Weather by CustomWeather, © 2017

See weather overviewHow to use our weather pages